This is the latest recevied weather packets stored in our database for station/object W0AKO. If no packets are shown the sender has not sent any weather packets the latest 10 day(s).
| Time | Temp. | Humidity | Pressure | Rain* | Wind** | Luminosity | Snow |
|---|---|---|---|---|---|---|---|
| 1777554596 | 10° C | 10% | 1017.3 hPa | 0 mm | - | 16 W/m² | - |
| 1777554293 | 10° C | 10% | 1017.3 hPa | 0 mm | - | 14 W/m² | - |
| 1777553990 | 10° C | 10% | 1017.2 hPa | 0 mm | - | 11 W/m² | - |
| 1777553687 | 10.56° C | 10% | 1017.2 hPa | 0 mm | - | 8 W/m² | - |
| 1777553384 | 11.11° C | 10% | 1017 hPa | 0 mm | - | 6 W/m² | - |
| 1777553080 | 11.67° C | 10% | 1017.2 hPa | 0 mm | - | 3 W/m² | - |
| 1777552779 | 12.22° C | 10% | 1017.1 hPa | 0 mm | - | 1 W/m² | - |
| 1777552475 | 11.67° C | 10% | 1017.1 hPa | 0 mm | - | 0 W/m² | - |
| 1777552172 | 11.67° C | 10% | 1017 hPa | 0 mm | - | 0 W/m² | - |
| 1777551869 | 12.22° C | 10% | 1017.2 hPa | 0 mm | - | 0 W/m² | - |
| 1777551567 | 11.67° C | 10% | 1017.1 hPa | 0 mm | - | 0 W/m² | - |
| 1777551264 | 12.22° C | 10% | 1017 hPa | 0 mm | - | 0 W/m² | - |
| 1777550960 | 11.67° C | 10% | 1017 hPa | 0 mm | - | 0 W/m² | - |
| 1777550657 | 13.33° C | 10% | 1016.9 hPa | 0 mm | - | 0 W/m² | - |
| 1777550353 | 12.78° C | 10% | 1016.7 hPa | 0 mm | - | 0 W/m² | - |
| 1777550049 | 12.78° C | 10% | 1017.1 hPa | 0 mm | - | 0 W/m² | - |
| 1777549746 | 12.78° C | 10% | 1016.8 hPa | 0 mm | - | 0 W/m² | - |
| 1777549441 | 13.33° C | 10% | 1017 hPa | 0 mm | - | 0 W/m² | - |
| 1777549138 | 13.33° C | 10% | 1016.8 hPa | 0 mm | - | 0 W/m² | - |
| 1777548834 | 13.33° C | 10% | 1016.8 hPa | 0 mm | - | 0 W/m² | - |
| 1777548532 | 13.89° C | 10% | 1016.7 hPa | 0 mm | - | 0 W/m² | - |
| 1777548229 | 13.89° C | 10% | 1016.7 hPa | 0 mm | - | 0 W/m² | - |
| 1777547925 | 14.44° C | 10% | 1016.7 hPa | 0 mm | - | 0 W/m² | - |
| 1777547621 | 13.89° C | 10% | 1016.9 hPa | 0 mm | - | 0 W/m² | - |
| 1777547318 | 13.33° C | 10% | 1017 hPa | 0 mm | - | 0 W/m² | - |
* Rain latest hour (hover to see other rain measurements)
** Current wind speed in m/s (hover to see current wind gust speed)